Location: Darmstadt
(49.8706°N, 8.6494°E)
Time: 06:21:41
(UTC+01:00)

NOAA 11 - Pass Details

Date: 31 October 2020
Orbit: 833 x 849 km, 98.4° (Epoch: 03 December)

Event Time Altitude Azimuth Distance (km) Brightness Sun altitude
Rises 17:50:02 0° 156° (SSE) 3,380 7.2 -8.0°
Reaches altitude 10° 17:52:24 10° 154° (SSE) 2,448 6.5 -8.3°
Maximum altitude 17:57:47 70° 72° (ENE) 890 4.1 -9.2°
Drops below altitude 10° 18:03:12 10° 349° (N) 2,457 6.6 -10.1°
Sets 18:05:35 0° 348° (NNW) 3,395 7.4 -10.4°
